TimeCET,TemperatureF,Dew PointF,Humidity,Sea Level PressureIn,VisibilityMPH,Wind Direction,Wind SpeedMPH,Gust SpeedMPH,PrecipitationIn,Events,Conditions,WindDirDegrees,DateUTC
12:00 AM,37.4,37.4,100,30.33,-9999.0,Calm,Calm,-,N/A,,Clear,0,2013-01-07 23:00:00
5:30 AM,30.2,30.2,100,30.33,4.3,Variable,1.2,-,N/A,,Unknown,0,2013-01-08 04:30:00
6:00 AM,30.2,30.2,100,30.33,5.6,Variable,1.2,-,N/A,,Unknown,0,2013-01-08 05:00:00
6:30 AM,32.0,32.0,100,30.33,5.0,Calm,Calm,-,N/A,,Unknown,0,2013-01-08 05:30:00
7:00 AM,30.2,30.2,100,30.33,5.0,Calm,Calm,-,N/A,,Unknown,0,2013-01-08 06:00:00
7:30 AM,30.2,30.2,100,30.33,5.0,South,1.2,-,N/A,,Unknown,180,2013-01-08 06:30:00
8:00 AM,30.2,30.2,100,30.36,5.0,Calm,Calm,-,N/A,,Unknown,0,2013-01-08 07:00:00
8:30 AM,30.2,30.2,100,30.36,3.1,Calm,Calm,-,N/A,,Mist,0,2013-01-08 07:30:00
9:00 AM,30.2,30.2,100,30.36,5.0,Calm,Calm,-,N/A,,Unknown,0,2013-01-08 08:00:00
9:30 AM,32.0,32.0,100,30.36,5.6,Calm,Calm,-,N/A,,Unknown,0,2013-01-08 08:30:00
10:00 AM,33.8,33.8,100,30.39,5.0,Calm,Calm,-,N/A,,Unknown,0,2013-01-08 09:00:00
10:30 AM,35.6,33.8,93,30.39,5.6,Calm,Calm,-,N/A,,Unknown,0,2013-01-08 09:30:00
11:00 AM,35.6,35.6,100,30.39,5.6,WNW,1.2,-,N/A,,Unknown,300,2013-01-08 10:00:00
11:30 AM,37.4,35.6,93,30.39,-9999.0,Variable,1.2,-,N/A,,Clear,0,2013-01-08 10:30:00
12:00 PM,41.0,35.6,81,30.39,-9999.0,Calm,Calm,-,N/A,,Clear,0,2013-01-08 11:00:00
12:30 PM,42.8,37.4,81,30.36,-9999.0,Calm,Calm,-,N/A,,Clear,0,2013-01-08 11:30:00
1:00 PM,44.6,37.4,76,30.36,-9999.0,Calm,Calm,-,N/A,,Clear,0,2013-01-08 12:00:00
1:30 PM,46.4,39.2,76,30.33,-9999.0,Variable,1.2,-,N/A,,Clear,0,2013-01-08 12:30:00
2:00 PM,48.2,39.2,71,30.33,-9999.0,Variable,1.2,-,N/A,,Clear,0,2013-01-08 13:00:00
2:30 PM,50.0,39.2,66,30.30,-9999.0,Variable,1.2,-,N/A,,Clear,0,2013-01-08 13:30:00
3:00 PM,51.8,39.2,62,30.30,-9999.0,Variable,2.3,-,N/A,,Clear,0,2013-01-08 14:00:00
3:30 PM,51.8,39.2,62,30.30,-9999.0,Calm,Calm,-,N/A,,Clear,0,2013-01-08 14:30:00
4:00 PM,53.6,39.2,58,30.30,-9999.0,Calm,Calm,-,N/A,,Clear,0,2013-01-08 15:00:00
5:00 PM,53.6,39.2,58,30.30,-9999.0,Calm,Calm,-,N/A,,Clear,0,2013-01-08 16:00:00
5:30 PM,51.8,39.2,62,30.30,-9999.0,Calm,Calm,-,N/A,,Clear,0,2013-01-08 16:30:00
6:00 PM,48.2,39.2,71,30.30,-9999.0,Calm,Calm,-,N/A,,Clear,0,2013-01-08 17:00:00
6:30 PM,46.4,39.2,76,30.30,-9999.0,Variable,1.2,-,N/A,,Clear,0,2013-01-08 17:30:00
7:00 PM,44.6,37.4,76,30.30,-9999.0,Calm,Calm,-,N/A,,Clear,0,2013-01-08 18:00:00
7:30 PM,41.0,37.4,87,30.30,-9999.0,WSW,2.3,-,N/A,,Clear,240,2013-01-08 18:30:00
8:00 PM,41.0,35.6,81,30.33,-9999.0,Calm,Calm,-,N/A,,Clear,0,2013-01-08 19:00:00
8:30 PM,42.8,37.4,81,30.33,-9999.0,Calm,Calm,-,N/A,,Clear,0,2013-01-08 19:30:00
9:00 PM,39.2,35.6,87,30.33,-9999.0,Calm,Calm,-,N/A,,Clear,0,2013-01-08 20:00:00
9:30 PM,37.4,35.6,93,30.33,-9999.0,Calm,Calm,-,N/A,,Clear,0,2013-01-08 20:30:00
10:00 PM,35.6,33.8,93,30.33,-9999.0,Calm,Calm,-,N/A,,Clear,0,2013-01-08 21:00:00
10:30 PM,35.6,35.6,100,30.33,-9999.0,Calm,Calm,-,N/A,,Clear,0,2013-01-08 21:30:00
11:00 PM,33.8,33.8,100,30.33,-9999.0,Variable,2.3,-,N/A,,Clear,0,2013-01-08 22:00:00
11:30 PM,33.8,32.0,93,30.33,-9999.0,Calm,Calm,-,N/A,,Clear,0,2013-01-08 22:30:00